Time,TemperatureF,DewpointF,PressureIn,WindDirection,WindDirectionDegrees,WindSpeedMPH,WindSpeedGustMPH,Humidity,HourlyPrecipIn,Conditions,Clouds,dailyrainin,SolarRadiationWatts/m^2,SoftwareType,DateUTC
2013-05-22 00:00:00,65.0,65.0,-100.00,SE,135,0.0,-999.0,101,-99.99,,,-99.99,0.000000,,2013-05-22 04:00:00,
2013-05-22 00:33:00,65.0,65.0,-100.00,SE,135,0.0,-999.0,101,-99.99,,,-99.99,0.000000,,2013-05-22 04:33:00,
2013-05-22 00:43:00,65.0,65.0,-100.00,SE,135,0.0,-999.0,101,-99.99,,,-99.99,0.000000,,2013-05-22 04:43:00,
2013-05-22 00:53:00,65.0,65.0,-100.00,SE,135,0.0,-999.0,101,-99.99,,,-99.99,0.000000,,2013-05-22 04:53:00,
2013-05-22 01:00:00,66.0,66.0,-100.00,SSE,157,0.0,-999.0,100,-99.99,,,-99.99,0.000000,,2013-05-22 05:00:00,
2013-05-22 01:32:00,66.0,66.0,-100.00,SSE,157,0.0,-999.0,100,-99.99,,,-99.99,0.000000,,2013-05-22 05:32:00,
2013-05-22 01:42:00,66.0,66.0,-100.00,SSE,157,0.0,-999.0,100,-99.99,,,-99.99,0.000000,,2013-05-22 05:42:00,
2013-05-22 01:52:00,66.0,66.0,-100.00,SSE,157,0.0,-999.0,100,-99.99,,,-99.99,0.000000,,2013-05-22 05:52:00,
2013-05-22 03:00:00,67.0,66.0,-100.00,SSW,202,0.0,-999.0,95,-99.99,,,-99.99,0.000000,,2013-05-22 07:00:00,
2013-05-22 03:32:00,67.0,66.0,-100.00,SSW,202,0.0,-999.0,95,-99.99,,,-99.99,0.000000,,2013-05-22 07:32:00,
2013-05-22 03:42:00,67.0,66.0,-100.00,SSW,202,0.0,-999.0,95,-99.99,,,-99.99,0.000000,,2013-05-22 07:42:00,
2013-05-22 03:53:00,67.0,66.0,-100.00,SSW,202,0.0,-999.0,95,-99.99,,,-99.99,0.000000,,2013-05-22 07:53:00,
2013-05-22 04:00:00,68.0,66.0,-100.00,SSE,157,0.0,-999.0,93,-99.99,,,-99.99,0.000000,,2013-05-22 08:00:00,
2013-05-22 04:32:00,68.0,66.0,-100.00,SSE,157,0.0,-999.0,93,-99.99,,,-99.99,0.000000,,2013-05-22 08:32:00,
2013-05-22 04:42:00,68.0,66.0,-100.00,SSE,157,0.0,-999.0,93,-99.99,,,-99.99,0.000000,,2013-05-22 08:42:00,
2013-05-22 04:52:00,68.0,66.0,-100.00,SSE,157,0.0,-999.0,93,-99.99,,,-99.99,0.000000,,2013-05-22 08:52:00,
2013-05-22 05:00:00,68.0,66.0,-100.00,SSE,157,0.0,-999.0,96,-99.99,,,-99.99,0.000000,,2013-05-22 09:00:00,
2013-05-22 05:33:00,68.0,66.0,-100.00,SSE,157,0.0,-999.0,96,-99.99,,,-99.99,0.000000,,2013-05-22 09:33:00,
2013-05-22 05:42:00,68.0,66.0,-100.00,SSE,157,0.0,-999.0,96,-99.99,,,-99.99,0.000000,,2013-05-22 09:42:00,
2013-05-22 05:53:00,68.0,66.0,-100.00,SSE,157,0.0,-999.0,96,-99.99,,,-99.99,0.000000,,2013-05-22 09:53:00,
2013-05-22 06:00:00,67.0,66.0,-100.00,SSE,157,0.0,-999.0,99,0.01,,,-99.99,0.000000,,2013-05-22 10:00:00,
2013-05-22 06:33:00,67.0,66.0,-100.00,SSE,157,0.0,-999.0,99,0.01,,,-99.99,0.000000,,2013-05-22 10:33:00,
2013-05-22 06:42:00,67.0,66.0,-100.00,SSE,157,0.0,-999.0,99,0.01,,,-99.99,0.000000,,2013-05-22 10:42:00,
2013-05-22 06:52:00,67.0,66.0,-100.00,SSE,157,0.0,-999.0,99,0.01,,,-99.99,0.000000,,2013-05-22 10:52:00,
2013-05-22 08:00:00,67.0,67.0,-100.00,ESE,112,0.0,-999.0,99,-99.99,,,-99.99,34.799999,,2013-05-22 12:00:00,
2013-05-22 08:32:00,67.0,67.0,-100.00,ESE,112,0.0,-999.0,99,-99.99,,,-99.99,34.799999,,2013-05-22 12:32:00,
2013-05-22 08:42:00,67.0,67.0,-100.00,ESE,112,0.0,-999.0,99,-99.99,,,-99.99,34.799999,,2013-05-22 12:42:00,
2013-05-22 08:52:00,67.0,67.0,-100.00,ESE,112,0.0,-999.0,99,-99.99,,,-99.99,34.799999,,2013-05-22 12:52:00,
2013-05-22 10:00:00,67.0,66.0,-100.00,SE,135,0.0,-999.0,97,-99.99,,,-99.99,104.400002,,2013-05-22 14:00:00,
2013-05-22 10:32:00,67.0,66.0,-100.00,SE,135,0.0,-999.0,97,-99.99,,,-99.99,104.400002,,2013-05-22 14:32:00,
2013-05-22 10:42:00,67.0,66.0,-100.00,SE,135,0.0,-999.0,97,-99.99,,,-99.99,104.400002,,2013-05-22 14:42:00,
2013-05-22 10:53:00,67.0,66.0,-100.00,SE,135,0.0,-999.0,97,-99.99,,,-99.99,104.400002,,2013-05-22 14:53:00,
2013-05-22 11:00:00,66.0,66.0,-100.00,SE,135,0.0,-999.0,99,0.01,,,-99.99,107.879997,,2013-05-22 15:00:00,
2013-05-22 11:33:00,66.0,66.0,-100.00,SE,135,0.0,-999.0,99,0.01,,,-99.99,107.879997,,2013-05-22 15:33:00,
2013-05-22 11:43:00,66.0,66.0,-100.00,SE,135,0.0,-999.0,99,0.01,,,-99.99,107.879997,,2013-05-22 15:43:00,
2013-05-22 11:53:00,66.0,66.0,-100.00,SE,135,0.0,-999.0,99,0.01,,,-99.99,107.879997,,2013-05-22 15:53:00,
2013-05-22 12:00:00,67.0,66.0,-100.00,South,180,0.0,-999.0,96,-99.99,,,-99.99,180.960007,,2013-05-22 16:00:00,
2013-05-22 12:33:00,67.0,66.0,-100.00,South,180,0.0,-999.0,96,-99.99,,,-99.99,180.960007,,2013-05-22 16:33:00,
2013-05-22 12:42:00,67.0,66.0,-100.00,South,180,0.0,-999.0,96,-99.99,,,-99.99,180.960007,,2013-05-22 16:42:00,
2013-05-22 12:52:00,67.0,66.0,-100.00,South,180,0.0,-999.0,96,-99.99,,,-99.99,180.960007,,2013-05-22 16:52:00,
2013-05-22 13:00:00,70.0,66.0,-100.00,South,180,0.0,-999.0,88,-99.99,,,-99.99,554.479980,,2013-05-22 17:00:00,
2013-05-22 13:33:00,70.0,66.0,-100.00,South,180,0.0,-999.0,88,-99.99,,,-99.99,554.479980,,2013-05-22 17:33:00,
2013-05-22 13:42:00,70.0,66.0,-100.00,South,180,0.0,-999.0,88,-99.99,,,-99.99,554.479980,,2013-05-22 17:42:00,
2013-05-22 13:54:00,70.0,66.0,-100.00,South,180,0.0,-999.0,88,-99.99,,,-99.99,554.479980,,2013-05-22 17:54:00,
2013-05-22 15:00:00,67.0,65.0,-100.00,SSW,202,0.0,-999.0,92,0.01,,,-99.99,323.640015,,2013-05-22 19:00:00,
2013-05-22 15:32:00,67.0,65.0,-100.00,SSW,202,0.0,-999.0,92,0.01,,,-99.99,323.640015,,2013-05-22 19:32:00,
2013-05-22 15:42:00,67.0,65.0,-100.00,SSW,202,0.0,-999.0,92,0.01,,,-99.99,323.640015,,2013-05-22 19:42:00,
2013-05-22 15:52:00,67.0,65.0,-100.00,SSW,202,0.0,-999.0,92,0.01,,,-99.99,323.640015,,2013-05-22 19:52:00,
2013-05-22 16:00:00,65.0,62.0,-100.00,WSW,247,0.0,-999.0,88,0.01,,,-99.99,298.119995,,2013-05-22 20:00:00,
2013-05-22 16:32:00,65.0,62.0,-100.00,WSW,247,0.0,-999.0,88,0.01,,,-99.99,298.119995,,2013-05-22 20:32:00,
2013-05-22 16:42:00,65.0,62.0,-100.00,WSW,247,0.0,-999.0,88,0.01,,,-99.99,298.119995,,2013-05-22 20:42:00,
2013-05-22 16:52:00,65.0,62.0,-100.00,WSW,247,0.0,-999.0,88,0.01,,,-99.99,298.119995,,2013-05-22 20:52:00,
2013-05-22 17:00:00,63.0,62.0,-100.00,WSW,247,0.0,-999.0,97,0.02,,,-99.99,142.679993,,2013-05-22 21:00:00,
2013-05-22 17:33:00,63.0,62.0,-100.00,WSW,247,0.0,-999.0,97,0.02,,,-99.99,142.679993,,2013-05-22 21:33:00,
2013-05-22 17:42:00,63.0,62.0,-100.00,WSW,247,0.0,-999.0,97,0.02,,,-99.99,142.679993,,2013-05-22 21:42:00,
2013-05-22 17:53:00,63.0,62.0,-100.00,WSW,247,0.0,-999.0,97,0.02,,,-99.99,142.679993,,2013-05-22 21:53:00,
2013-05-22 19:00:00,65.0,60.0,-100.00,WSW,247,0.0,-999.0,81,-99.99,,,-99.99,300.440002,,2013-05-22 23:00:00,
2013-05-22 19:32:00,65.0,60.0,-100.00,WSW,247,0.0,-999.0,81,-99.99,,,-99.99,300.440002,,2013-05-22 23:32:00,
2013-05-22 19:42:00,65.0,60.0,-100.00,WSW,247,0.0,-999.0,81,-99.99,,,-99.99,300.440002,,2013-05-22 23:42:00,
2013-05-22 19:53:00,65.0,60.0,-100.00,WSW,247,0.0,-999.0,81,-99.99,,,-99.99,300.440002,,2013-05-22 23:53:00,
2013-05-22 21:00:00,65.0,59.0,-100.00,West,270,0.0,-999.0,80,-99.99,,,-99.99,54.520000,,2013-05-23 01:00:00,
2013-05-22 21:32:00,65.0,59.0,-100.00,West,270,0.0,-999.0,80,-99.99,,,-99.99,54.520000,,2013-05-23 01:32:00,
2013-05-22 21:42:00,65.0,59.0,-100.00,West,270,0.0,-999.0,80,-99.99,,,-99.99,54.520000,,2013-05-23 01:42:00,
2013-05-22 21:52:00,65.0,59.0,-100.00,West,270,0.0,-999.0,80,-99.99,,,-99.99,54.520000,,2013-05-23 01:52:00,
2013-05-22 23:00:00,60.0,60.0,-100.00,SW,225,0.0,-999.0,100,-99.99,,,-99.99,0.000000,,2013-05-23 03:00:00,
2013-05-22 23:33:00,60.0,60.0,-100.00,SW,225,0.0,-999.0,100,-99.99,,,-99.99,0.000000,,2013-05-23 03:33:00,
2013-05-22 23:43:00,60.0,60.0,-100.00,SW,225,0.0,-999.0,100,-99.99,,,-99.99,0.000000,,2013-05-23 03:43:00,
2013-05-22 23:53:00,60.0,60.0,-100.00,SW,225,0.0,-999.0,100,-99.99,,,-99.99,0.000000,,2013-05-23 03:53:00,